Powrót do katalogu

KOSMOS-2543 PROJECTILE

AktywnyMilitariaSSO
NORAD 45915·PAYLOAD·🇷🇺 Russia
Ta nazwa satelity nie została jeszcze potwierdzona przez oficjalne źródła.

Wystrzelony Nov 25, 2019 z Plesetsk Cosmodrome

Loading…

Następne Przeloty (najbliższe 24 godziny)

TLE

ŚwieżeSource: Space-Track

Epoka: Sep 14, 2026, 14:58 UTC

1 45915U 19079E   26257.62394675  .00001880  00000-0  17076-3 0  9995
2 45915  97.6687 258.9831 0169943  53.3949 308.2764 14.86050130332938

Śledź KOSMOS-2543 PROJECTILE w czasie rzeczywistym z AllMySat

Download on the App Store